UR7D-12 Weather Reports


time (UTC)temp
C
wind
direction
speed
KPH
gust
KPH
rain 1hr
cm
rain 24hr
cm
rain mn
cm
humidity
%
barometer
mb
20260507033840 13 122 6.4 9.7 0.00 0.00 0.00 74 986.8
20260507033340 13 80 4.8 9.7 0.00 0.00 0.00 74 986.6
20260507032839 13 151 6.4 8.0 0.00 0.00 0.00 74 986.8
20260507032339 13 122 8.0 11.3 0.00 0.00 0.00 74 986.6
20260507031839 13 85 11.3 14.5 0.00 0.00 0.00 74 986.5
20260507031339 13 77 12.9 19.3 0.00 0.00 0.00 74 986.4
20260507030838 14 84 14.5 25.7 0.00 0.00 0.00 73 986.4
20260507030338 13 80 12.9 17.7 0.00 0.00 0.00 73 986.4
20260507025838 13 85 12.9 17.7 0.00 0.00 0.00 73 986.4
20260507025337 13 86 14.5 17.7 0.00 0.00 0.00 73 986.3
20260507024837 13 80 14.5 19.3 0.00 0.00 0.00 73 986.3
20260507024337 14 96 14.5 19.3 0.00 0.00 0.00 73 986.3
20260507023837 14 74 11.3 19.3 0.00 0.00 0.00 73 986.3
20260507023336 14 89 9.7 16.1 0.00 0.00 0.00 73 986.3
20260507022836 14 93 9.7 17.7 0.00 0.00 0.00 73 986.3
20260507022336 14 75 9.7 16.1 0.00 0.00 0.00 72 986.4
20260507021835 14 105 11.3 14.5 0.00 0.00 0.00 72 986.3
20260507021335 14 102 11.3 16.1 0.00 0.00 0.00 72 986.3
20260507020835 14 98 9.7 16.1 0.00 0.00 0.00 72 986.3
20260507020335 15 93 9.7 17.7 0.00 0.00 0.00 71 986.2
20260507015834 15 105 9.7 12.9 0.00 0.00 0.00 70 986.1
20260507015334 15 99 9.7 12.9 0.00 0.00 0.00 70 986.2
20260507014834 15 89 11.3 14.5 0.00 0.00 0.00 70 986.1
20260507014333 15 88 11.3 14.5 0.00 0.00 0.00 69 986.1
20260507013833 15 98 11.3 14.5 0.00 0.00 0.00 69 986.1
20260507013333 15 98 12.9 14.5 0.00 0.00 0.00 69 986.1
20260507012833 15 96 12.9 20.9 0.00 0.00 0.00 68 986.0
20260507012332 15 101 11.3 17.7 0.00 0.00 0.00 69 985.9
20260507011832 15 100 11.3 16.1 0.00 0.00 0.00 68 985.9
20260507011332 15 88 12.9 17.7 0.00 0.00 0.00 68 985.9
20260507010831 15 91 12.9 19.3 0.00 0.00 0.00 68 985.9
20260507010332 15 98 12.9 16.1 0.00 0.00 0.00 68 985.9
20260507005831 15 96 12.9 17.7 0.00 0.00 0.00 68 985.9
20260507005331 15 90 12.9 16.1 0.00 0.00 0.00 68 985.9
20260507004832 15 90 12.9 19.3 0.00 0.00 0.00 69 985.8
20260507004330 15 89 12.9 19.3 0.00 0.00 0.00 69 985.8
20260507003830 15 100 12.9 16.1 0.00 0.00 0.00 68 985.8
20260507003330 16 92 12.9 20.9 0.00 0.00 0.00 68 985.8
20260507002829 16 102 12.9 16.1 0.00 0.00 0.00 68 985.8
20260507002329 16 88 12.9 19.3 0.00 0.00 0.00 68 985.8
20260507001829 16 101 12.9 17.7 0.00 0.00 0.00 68 985.9
20260507001328 16 103 12.9 17.7 0.00 0.00 0.00 68 985.9
20260507000828 16 103 12.9 16.1 0.00 0.00 0.00 68 985.9
20260507000328 16 120 12.9 17.7 0.00 0.00 0.00 67 986.0
20260506235827 16 96 11.3 16.1 0.00 0.00 0.00 67 985.9
20260506235327 16 111 11.3 14.5 0.00 0.00 0.00 67 986.1
20260506234827 16 110 11.3 14.5 0.00 0.00 0.00 67 986.0
20260506234327 16 103 12.9 17.7 0.00 0.00 0.00 67 986.1
20260506233826 16 108 11.3 17.7 0.00 0.00 0.00 67 986.1
20260506233326 16 93 9.7 14.5 0.00 0.00 0.00 67 986.2
20260506232826 16 102 8.0 11.3 0.00 0.00 0.00 67 986.2
20260506232326 16 115 8.0 11.3 0.00 0.00 0.00 67 986.2
20260506231825 16 103 8.0 14.5 0.00 0.00 0.00 67 986.1
20260506231325 16 103 8.0 14.5 0.00 0.00 0.00 68 986.1
20260506230825 15 111 6.4 11.3 0.00 0.00 0.00 68 986.0
20260506230324 15 157 8.0 9.7 0.00 0.00 0.00 68 986.1
20260506225824 16 106 9.7 11.3 0.00 0.00 0.00 68 986.0
20260506225324 16 123 9.7 14.5 0.00 0.00 0.00 68 986.1
20260506224824 16 114 9.7 12.9 0.00 0.00 0.00 68 986.0
20260506224323 16 111 9.7 14.5 0.00 0.00 0.00 68 986.0
20260506223823 16 110 9.7 14.5 0.00 0.00 0.00 68 986.0
20260506223323 15 122 9.7 12.9 0.00 0.00 0.00 68 986.0
20260506222822 15 96 11.3 14.5 0.00 0.00 0.00 68 986.0
20260506222322 15 96 11.3 16.1 0.00 0.00 0.00 69 986.0
20260506221822 15 101 9.7 14.5 0.00 0.00 0.00 68 986.0
20260506221322 15 102 8.0 12.9 0.00 0.00 0.00 68 986.1
20260506220821 16 117 8.0 11.3 0.00 0.00 0.00 68 986.1
20260506220321 16 94 8.0 11.3 0.00 0.00 0.00 67 986.1
20260506215821 16 96 6.4 9.7 0.00 0.00 0.00 67 986.0
20260506215320 16 111 4.8 6.4 0.00 0.00 0.00 66 986.1
20260506214820 16 113 6.4 9.7 0.00 0.00 0.00 66 986.0
20260506214320 16 90 6.4 9.7 0.00 0.00 0.00 66 985.9
20260506213820 16 113 6.4 9.7 0.00 0.00 0.00 66 986.0
20260506213319 16 111 6.4 9.7 0.00 0.00 0.00 65 985.9
20260506212819 16 105 6.4 9.7 0.00 0.00 0.00 65 985.9
20260506211818 16 110 4.8 11.3 0.00 0.00 0.00 65 985.8
20260506211318 16 117 3.2 8.0 0.00 0.00 0.00 65 985.9
20260506210818 16 127 4.8 6.4 0.00 0.00 0.00 64 985.8
20260506210318 16 113 4.8 6.4 0.00 0.00 0.00 64 985.7
20260506205817 16 105 4.8 6.4 0.00 0.00 0.00 64 985.9
20260506205317 16 109 6.4 9.7 0.00 0.00 0.00 64 985.8
20260506204817 17 107 6.4 8.0 0.00 0.00 0.00 63 985.8
20260506204316 17 119 6.4 9.7 0.00 0.00 0.00 61 985.8
20260506203816 17 111 6.4 9.7 0.00 0.00 0.00 60 985.8
20260506203316 17 106 6.4 8.0 0.00 0.00 0.00 60 985.7
20260506202816 18 120 6.4 8.0 0.00 0.00 0.00 60 985.7
20260506202315 17 105 6.4 9.7 0.00 0.00 0.00 60 985.9
20260506201815 18 108 6.4 8.0 0.00 0.00 0.00 60 985.8
20260506201315 18 105 6.4 8.0 0.00 0.00 0.00 59 985.8
20260506200814 18 113 4.8 8.0 0.00 0.00 0.00 59 985.7
20260506200314 18 103 3.2 6.4 0.00 0.00 0.00 57 985.7
20260506195814 19 109 1.6 3.2 0.00 0.00 0.00 54 985.7
20260506195314 20 165 1.6 1.6 0.00 0.00 0.00 54 985.7
20260506194813 20 169 1.6 3.2 0.00 0.00 0.00 54 985.8
20260506194313 20 204 3.2 3.2 0.00 0.00 0.00 53 985.7
20260506193813 20 193 3.2 4.8 0.00 0.00 0.00 54 985.7
20260506193313 20 193 1.6 3.2 0.00 0.00 0.00 54 985.7
20260506192812 20 196 3.2 3.2 0.00 0.00 0.00 54 985.7
20260506192312 20 201 3.2 3.2 0.00 0.00 0.00 54 985.6
20260506191812 20 178 3.2 3.2 0.00 0.00 0.00 54 985.6
20260506191311 20 167 3.2 4.8 0.00 0.00 0.00 53 985.6
20260506190811 20 205 3.2 4.8 0.00 0.00 0.00 53 985.6
20260506190311 20 216 4.8 6.4 0.00 0.00 0.00 52 985.6
20260506185811 20 225 4.8 6.4 0.00 0.00 0.00 52 985.5
20260506185310 20 225 3.2 6.4 0.00 0.00 0.00 52 985.4
20260506184810 20 221 1.6 4.8 0.00 0.00 0.00 53 985.4
20260506184310 20 167 1.6 3.2 0.00 0.00 0.00 53 985.5
20260506183809 20 166 1.6 3.2 0.00 0.00 0.00 53 985.4
20260506183309 20 184 3.2 3.2 0.00 0.00 0.00 52 985.3
20260506182814 21 208 3.2 3.2 0.00 0.00 0.00 52 985.3
20260506182309 21 222 3.2 3.2 0.00 0.00 0.00 52 985.3
20260506181808 21 221 3.2 3.2 0.00 0.00 0.00 51 985.4
20260506181308 21 222 3.2 4.8 0.00 0.00 0.00 51 985.3
20260506180309 21 212 3.2 4.8 0.00 0.00 0.00 51 985.3
20260506175807 21 212 1.6 3.2 0.00 0.00 0.00 51 985.1
20260506175307 21 200 1.6 1.6 0.00 0.00 0.00 51 985.1
20260506174807 21 200 1.6 3.2 0.00 0.00 0.00 49 985.1
20260506174308 21 241 1.6 3.2 0.00 0.00 0.00 49 985.0
20260506173806 22 218 3.2 4.8 0.00 0.00 0.00 48 985.0
20260506173306 22 209 3.2 3.2 0.00 0.00 0.00 48 985.0
20260506172805 22 228 3.2 4.8 0.00 0.00 0.00 48 985.0
20260506172307 22 250 3.2 4.8 0.00 0.00 0.00 48 985.0
20260506171805 22 248 3.2 6.4 0.00 0.00 0.00 47 985.1
20260506171305 22 247 3.2 4.8 0.00 0.00 0.00 47 985.2
20260506170804 22 239 3.2 4.8 0.00 0.00 0.00 47 985.2
20260506170304 22 248 3.2 6.4 0.00 0.00 0.00 47 985.3
20260506165804 22 271 3.2 4.8 0.00 0.00 0.00 47 985.2
20260506164804 22 275 6.4 6.4 0.00 0.00 0.00 47 985.2
20260506164304 22 278 6.4 11.3 0.00 0.00 0.00 46 985.3
20260506163803 23 273 8.0 9.7 0.00 0.00 0.00 46 985.3
20260506162803 23 249 6.4 14.5 0.00 0.00 0.00 44 985.3
20260506162306 23 226 9.7 11.3 0.00 0.00 0.00 46 985.2
20260506161803 23 255 12.9 19.3 0.00 0.00 0.00 45 985.2
20260506161302 23 281 11.3 24.1 0.00 0.00 0.00 45 985.2
20260506160802 23 255 9.7 16.1 0.00 0.00 0.00 45 985.3
20260506155800 23 232 11.3 16.1 0.00 0.00 0.00 45 985.3
20260506155300 23 274 12.9 22.5 0.00 0.00 0.00 45 985.3
20260506154800 23 321 12.9 17.7 0.00 0.00 0.00 45 985.4
20260506152759 23 223 14.5 24.1 0.00 0.00 0.00 43 985.5
20260506152258 23 252 16.1 22.5 0.00 0.00 0.00 42 985.5
20260506151803 23 210 17.7 25.7 0.00 0.00 0.00 42 985.5
20260506151259 23 244 16.1 24.1 0.00 0.00 0.00 42 985.5
20260506150303 24 262 12.9 20.9 0.00 0.00 0.00 42 985.5
20260506145258 25 204 11.3 19.3 0.00 0.00 0.00 42 985.5
20260506142757 25 226 11.3 20.9 0.00 0.00 0.00 42 985.6
20260506142256 25 188 9.7 19.3 0.00 0.00 0.00 42 985.6
20260506141756 24 226 9.7 16.1 0.00 0.00 0.00 43 985.6
20260506140756 24 198 9.7 22.5 0.00 0.00 0.00 42 985.6
20260506140255 24 195 11.3 19.3 0.00 0.00 0.00 43 985.6
20260506135755 24 221 12.9 22.5 0.00 0.00 0.00 43 985.7
20260506133754 25 264 12.9 24.1 0.00 0.00 0.00 43 985.8
20260506133254 24 249 11.3 22.5 0.00 0.00 0.00 43 985.8
20260506132752 24 288 12.9 19.3 0.00 0.00 0.00 43 985.8
20260506132253 24 233 16.1 24.1 0.00 0.00 0.00 43 986.1
20260506131252 25 179 9.7 20.9 0.00 0.00 0.00 43 985.9
20260506130751 24 232 8.0 19.3 0.00 0.00 0.00 43 985.9
20260506130252 24 219 8.0 12.9 0.00 0.00 0.00 43 985.9
20260506125754 24 249 9.7 14.5 0.00 0.00 0.00 43 986.0
20260506124251 23 221 14.5 22.5 0.00 0.00 0.00 43 986.3
20260506123750 24 173 14.5 24.1 0.00 0.00 0.00 43 986.3
20260506123250 24 283 11.3 19.3 0.00 0.00 0.00 43 986.4
20260506122750 24 214 12.9 22.5 0.00 0.00 0.00 43 986.4
20260506122248 23 227 12.9 20.9 0.00 0.00 0.00 42 986.4
20260506121249 23 260 14.5 29.0 0.00 0.00 0.00 44 986.5
20260506120248 23 139 11.3 17.7 0.00 0.00 0.00 43 986.5
20260506114747 23 269 14.5 24.1 0.00 0.00 0.00 44 986.7
20260506114247 23 238 12.9 24.1 0.00 0.00 0.00 44 986.7
20260506113245 23 237 14.5 22.5 0.00 0.00 0.00 46 986.8
20260506112746 23 242 14.5 22.5 0.00 0.00 0.00 44 986.7
20260506111746 23 245 14.5 22.5 0.00 0.00 0.00 44 987.0
20260506111246 23 265 11.3 19.3 0.00 0.00 0.00 44 987.0
20260506105745 23 180 14.5 30.6 0.00 0.00 0.00 46 987.2
20260506104744 23 182 9.7 14.5 0.00 0.00 0.00 46 987.3
20260506103742 23 203 16.1 38.6 0.00 0.00 0.00 46 987.4
20260506103243 23 300 11.3 25.7 0.00 0.00 0.00 44 987.5
20260506102743 23 227 11.3 16.1 0.00 0.00 0.00 47 987.4
20260506102241 22 216 11.3 20.9 0.00 0.00 0.00 47 987.4
20260506101741 23 193 11.3 20.9 0.00 0.00 0.00 45 987.4
20260506101241 23 277 12.9 32.2 0.00 0.00 0.00 45 987.5
20260506100742 22 231 12.9 20.9 0.00 0.00 0.00 46 987.4
20260506100242 22 245 11.3 19.3 0.00 0.00 0.00 46 987.6
20260506095240 22 182 8.0 19.3 0.00 0.00 0.00 48 987.3
20260506094739 22 207 8.0 12.9 0.00 0.00 0.00 51 987.3
20260506094239 22 231 8.0 12.9 0.00 0.00 0.00 51 987.6
20260506093739 21 174 9.7 17.7 0.00 0.00 0.00 49 987.6
20260506093239 21 201 9.7 17.7 0.00 0.00 0.00 53 987.6
20260506092740 21 234 8.0 16.1 0.00 0.00 0.00 53 987.8
20260506092238 21 208 9.7 16.1 0.00 0.00 0.00 51 987.7
20260506091738 21 227 8.0 22.5 0.00 0.00 0.00 49 987.9
20260506091239 21 235 4.8 11.3 0.00 0.00 0.00 54 987.8
20260506090737 21 219 6.4 8.0 0.00 0.00 0.00 54 987.6
20260506090238 21 208 9.7 14.5 0.00 0.00 0.00 52 987.6
20260506085737 21 162 9.7 17.7 0.00 0.00 0.00 53 987.6
20260506085236 21 153 9.7 16.1 0.00 0.00 0.00 53 987.6
20260506084738 21 224 9.7 14.5 0.00 0.00 0.00 53 987.7
20260506084236 21 264 9.7 14.5 0.00 0.00 0.00 52 987.5
20260506083735 21 229 9.7 19.3 0.00 0.00 0.00 52 987.7
20260506083235 21 245 9.7 19.3 0.00 0.00 0.00 53 987.7
20260506082735 20 257 11.3 17.7 0.00 0.00 0.00 54 987.6
20260506082235 20 176 9.7 19.3 0.00 0.00 0.00 53 987.6
20260506081734 21 257 4.8 14.5 0.00 0.00 0.00 53 987.5
20260506080734 20 267 4.8 12.9 0.00 0.00 0.00 53 987.4
20260506080235 20 269 3.2 8.0 0.00 0.00 0.00 55 987.3
20260506073232 18 264 6.4 14.5 0.00 0.00 0.00 56 987.4
20260506072731 18 224 6.4 9.7 0.00 0.00 0.00 55 987.4
20260506072231 18 290 8.0 12.9 0.00 0.00 0.00 58 987.4
20260506071731 18 252 8.0 12.9 0.00 0.00 0.00 56 987.4
20260506070732 18 225 6.4 11.3 0.00 0.00 0.00 57 987.5
20260506070232 18 227 4.8 12.9 0.00 0.00 0.00 56 987.4
20260506062228 16 109 6.4 11.3 0.00 0.00 0.00 60 987.2
20260506061728 15 83 8.0 9.7 0.00 0.00 0.00 61 987.2
20260506061227 15 115 8.0 12.9 0.00 0.00 0.00 61 987.1
20260506060727 15 113 8.0 11.3 0.00 0.00 0.00 60 987.1
20260506060227 15 105 9.7 17.7 0.00 0.00 0.00 61 987.1
20260506051224 13 86 9.7 14.5 0.00 0.00 0.00 65 987.0
20260506050724 13 84 11.3 16.1 0.00 0.00 0.00 64 986.9
20260506050225 13 110 11.3 14.5 0.00 0.00 0.00 64 986.9
20260506044722 12 105 8.0 11.3 0.00 0.00 0.00 67 986.8
20260506044222 12 82 8.0 12.9 0.00 0.00 0.00 66 986.8
20260506043722 12 98 6.4 12.9 0.00 0.00 0.00 67 986.9
20260506043222 12 79 3.2 6.4 0.00 0.00 0.00 67 986.9
20260506042721 12 88 4.8 4.8 0.00 0.00 0.00 68 986.9
20260506042221 12 80 11.3 14.5 0.00 0.00 0.00 68 986.8
20260506041721 11 84 14.5 17.7 0.00 0.00 0.00 68 986.6
20260506041220 11 82 14.5 17.7 0.00 0.00 0.00 69 986.6
20260506040720 11 93 14.5 17.7 0.00 0.00 0.00 69 986.6
20260506040220 11 86 14.5 19.3 0.00 0.00 0.00 69 986.4
20260506035720 11 92 14.5 17.7 0.00 0.00 0.00 69 986.4
20260506035219 11 93 16.1 19.3 0.00 0.00 0.00 69 986.4
20260506034719 11 89 17.7 20.9 0.00 0.00 0.00 70 986.3